Time,TemperatureF,DewpointF,PressureIn,WindDirection,WindDirectionDegrees,WindSpeedMPH,WindSpeedGustMPH,Humidity,HourlyPrecipIn,Conditions,Clouds,dailyrainin,SoftwareType,DateUTC
2013-09-30 00:01:00,34.0,31.0,30.38,NNW,340,6.0,8.0,89,-99.99,,,-99.99,,2013-09-30 06:01:00,
2013-09-30 00:11:00,34.0,32.0,30.37,NW,310,7.0,7.0,90,-99.99,,,-99.99,,2013-09-30 06:11:00,
2013-09-30 00:16:00,34.0,31.0,30.37,NNW,340,6.0,8.0,89,-99.99,,,-99.99,,2013-09-30 06:16:00,
2013-09-30 00:26:00,34.0,31.0,30.38,NNW,340,6.0,9.0,90,-99.99,,,-99.99,,2013-09-30 06:26:00,
2013-09-30 00:31:00,34.0,31.0,30.38,NNE,20,4.0,8.0,90,-99.99,,,-99.99,,2013-09-30 06:31:00,
2013-09-30 00:41:00,34.0,31.0,30.38,North,0,4.0,8.0,90,-99.99,,,-99.99,,2013-09-30 06:41:00,
2013-09-30 00:46:00,33.0,31.0,30.38,NNE,20,5.0,6.0,90,-99.99,,,-99.99,,2013-09-30 06:46:00,
2013-09-30 00:51:00,34.0,31.0,30.38,North,350,6.0,7.0,91,-99.99,,,-99.99,,2013-09-30 06:51:00,
2013-09-30 00:56:00,33.0,31.0,30.37,NNW,340,6.0,7.0,91,-99.99,,,-99.99,,2013-09-30 06:56:00,
2013-09-30 01:06:00,33.0,31.0,30.38,North,10,3.0,9.0,91,-99.99,,,-99.99,,2013-09-30 07:06:00,
2013-09-30 01:11:00,33.0,31.0,30.37,North,350,3.0,9.0,91,-99.99,,,-99.99,,2013-09-30 07:11:00,
2013-09-30 01:16:00,33.0,31.0,30.38,NNW,340,5.0,6.0,91,-99.99,,,-99.99,,2013-09-30 07:16:00,
2013-09-30 01:26:00,33.0,30.0,30.38,NE,50,5.0,7.0,92,-99.99,,,-99.99,,2013-09-30 07:26:00,
2013-09-30 01:36:00,32.0,30.0,30.38,North,10,6.0,6.0,92,-99.99,,,-99.99,,2013-09-30 07:36:00,
2013-09-30 01:46:00,32.0,30.0,30.38,North,350,7.0,7.0,93,-99.99,,,-99.99,,2013-09-30 07:46:00,
2013-09-30 01:51:00,32.0,30.0,30.38,North,350,5.0,8.0,92,-99.99,,,-99.99,,2013-09-30 07:51:00,
2013-09-30 02:01:00,32.0,30.0,30.38,North,0,6.0,8.0,92,-99.99,,,-99.99,,2013-09-30 08:01:00,
2013-09-30 02:11:00,32.0,30.0,30.38,North,0,5.0,8.0,92,-99.99,,,-99.99,,2013-09-30 08:11:00,
2013-09-30 02:16:00,32.0,30.0,30.38,NE,50,3.0,7.0,92,-99.99,,,-99.99,,2013-09-30 08:16:00,
2013-09-30 02:26:00,32.0,30.0,30.38,North,0,6.0,7.0,92,-99.99,,,-99.99,,2013-09-30 08:26:00,
2013-09-30 02:31:00,32.0,30.0,30.38,ENE,60,2.0,8.0,91,-99.99,,,-99.99,,2013-09-30 08:31:00,
2013-09-30 02:36:00,32.0,29.0,30.38,NNW,340,5.0,6.0,91,-99.99,,,-99.99,,2013-09-30 08:36:00,
2013-09-30 02:41:00,31.0,29.0,30.38,NNW,340,6.0,6.0,92,-99.99,,,-99.99,,2013-09-30 08:41:00,
2013-09-30 02:46:00,31.0,29.0,30.38,NNE,30,6.0,6.0,92,-99.99,,,-99.99,,2013-09-30 08:46:00,
2013-09-30 02:56:00,31.0,29.0,30.37,North,0,6.0,7.0,92,-99.99,,,-99.99,,2013-09-30 08:56:00,
2013-09-30 03:06:00,31.0,29.0,30.37,NW,310,8.0,8.0,93,-99.99,,,-99.99,,2013-09-30 09:06:00,
2013-09-30 03:11:00,31.0,29.0,30.37,NNW,330,8.0,9.0,93,-99.99,,,-99.99,,2013-09-30 09:11:00,
2013-09-30 03:16:00,31.0,29.0,30.37,NW,310,9.0,9.0,93,-99.99,,,-99.99,,2013-09-30 09:16:00,
2013-09-30 03:21:00,31.0,29.0,30.37,North,350,8.0,10.0,93,-99.99,,,-99.99,,2013-09-30 09:21:00,
2013-09-30 03:31:00,31.0,29.0,30.37,North,0,0.0,10.0,93,-99.99,,,-99.99,,2013-09-30 09:31:00,
2013-09-30 03:36:00,31.0,29.0,30.37,NNW,330,4.0,9.0,93,-99.99,,,-99.99,,2013-09-30 09:36:00,
2013-09-30 03:46:00,31.0,29.0,30.36,North,10,5.0,9.0,94,-99.99,,,-99.99,,2013-09-30 09:46:00,
2013-09-30 03:51:00,31.0,29.0,30.36,NNW,330,11.0,11.0,94,-99.99,,,-99.99,,2013-09-30 09:51:00,
2013-09-30 03:56:00,30.0,28.0,30.35,North,0,8.0,10.0,94,-99.99,,,-99.99,,2013-09-30 09:56:00,
2013-09-30 04:01:00,30.0,29.0,30.35,NE,50,8.0,9.0,94,-99.99,,,-99.99,,2013-09-30 10:01:00,
2013-09-30 04:11:00,30.0,28.0,30.35,North,350,9.0,9.0,94,-99.99,,,-99.99,,2013-09-30 10:11:00,
2013-09-30 04:21:00,30.0,28.0,30.34,NE,50,0.0,9.0,94,-99.99,,,-99.99,,2013-09-30 10:21:00,
2013-09-30 04:26:00,30.0,28.0,30.34,North,0,6.0,6.0,94,-99.99,,,-99.99,,2013-09-30 10:26:00,
2013-09-30 04:31:00,30.0,28.0,30.34,North,0,10.0,10.0,95,-99.99,,,-99.99,,2013-09-30 10:31:00,
2013-09-30 04:41:00,30.0,28.0,30.33,North,0,9.0,10.0,95,-99.99,,,-99.99,,2013-09-30 10:41:00,
2013-09-30 04:51:00,30.0,29.0,30.33,NNW,340,9.0,10.0,96,-99.99,,,-99.99,,2013-09-30 10:51:00,
2013-09-30 05:01:00,30.0,28.0,30.32,ENE,60,3.0,8.0,96,-99.99,,,-99.99,,2013-09-30 11:01:00,
2013-09-30 05:11:00,29.0,28.0,30.32,NNE,20,7.0,7.0,96,-99.99,,,-99.99,,2013-09-30 11:11:00,
2013-09-30 05:16:00,29.0,28.0,30.32,NNW,340,4.0,8.0,96,-99.99,,,-99.99,,2013-09-30 11:16:00,
2013-09-30 05:26:00,29.0,28.0,30.32,NNW,340,8.0,8.0,96,-99.99,,,-99.99,,2013-09-30 11:26:00,
2013-09-30 05:36:00,30.0,28.0,30.32,North,0,7.0,7.0,95,-99.99,,,-99.99,,2013-09-30 11:36:00,
2013-09-30 05:41:00,30.0,29.0,30.32,North,0,0.0,9.0,94,-99.99,,,-99.99,,2013-09-30 11:41:00,
2013-09-30 05:46:00,30.0,28.0,30.32,NW,320,5.0,8.0,94,-99.99,,,-99.99,,2013-09-30 11:46:00,
2013-09-30 05:51:00,30.0,28.0,30.32,NW,320,5.0,5.0,94,-99.99,,,-99.99,,2013-09-30 11:51:00,
2013-09-30 06:01:00,29.0,28.0,30.32,WNW,300,9.0,9.0,94,-99.99,,,-99.99,,2013-09-30 12:01:00,
2013-09-30 06:06:00,29.0,28.0,30.32,North,350,8.0,10.0,94,-99.99,,,-99.99,,2013-09-30 12:06:00,
2013-09-30 06:16:00,30.0,28.0,30.32,North,10,6.0,9.0,94,-99.99,,,-99.99,,2013-09-30 12:16:00,
2013-09-30 06:26:00,29.0,28.0,30.32,NNE,30,4.0,7.0,95,-99.99,,,-99.99,,2013-09-30 12:26:00,
2013-09-30 06:36:00,29.0,28.0,30.32,North,350,5.0,11.0,95,-99.99,,,-99.99,,2013-09-30 12:36:00,
2013-09-30 06:46:00,29.0,28.0,30.33,West,280,3.0,6.0,95,-99.99,,,-99.99,,2013-09-30 12:46:00,
2013-09-30 06:56:00,29.0,28.0,30.33,NNW,330,8.0,8.0,95,-99.99,,,-99.99,,2013-09-30 12:56:00,
2013-09-30 07:01:00,29.0,28.0,30.33,North,0,7.0,9.0,95,-99.99,,,-99.99,,2013-09-30 13:01:00,
2013-09-30 07:06:00,29.0,28.0,30.33,NW,310,10.0,10.0,95,-99.99,,,-99.99,,2013-09-30 13:06:00,
2013-09-30 07:16:00,29.0,28.0,30.33,NNW,340,6.0,9.0,95,-99.99,,,-99.99,,2013-09-30 13:16:00,
2013-09-30 07:21:00,29.0,28.0,30.33,North,0,7.0,8.0,95,-99.99,,,-99.99,,2013-09-30 13:21:00,
2013-09-30 07:26:00,29.0,28.0,30.33,NNE,30,5.0,9.0,95,-99.99,,,-99.99,,2013-09-30 13:26:00,
2013-09-30 07:31:00,29.0,28.0,30.33,North,0,8.0,9.0,95,-99.99,,,-99.99,,2013-09-30 13:31:00,
2013-09-30 07:36:00,29.0,28.0,30.33,NE,50,0.0,9.0,95,-99.99,,,-99.99,,2013-09-30 13:36:00,
2013-09-30 07:41:00,29.0,28.0,30.33,West,280,3.0,7.0,95,-99.99,,,-99.99,,2013-09-30 13:41:00,
2013-09-30 07:51:00,29.0,28.0,30.32,WSW,250,0.0,2.0,96,-99.99,,,-99.99,,2013-09-30 13:51:00,
2013-09-30 07:56:00,29.0,28.0,30.32,WSW,250,0.0,0.0,96,-99.99,,,-99.99,,2013-09-30 13:56:00,
2013-09-30 08:06:00,30.0,29.0,30.32,WSW,250,0.0,0.0,95,-99.99,,,-99.99,,2013-09-30 14:06:00,
2013-09-30 08:11:00,30.0,29.0,30.32,WSW,250,0.0,0.0,95,-99.99,,,-99.99,,2013-09-30 14:11:00,
2013-09-30 08:16:00,31.0,29.0,30.32,WSW,250,0.0,0.0,95,-99.99,,,-99.99,,2013-09-30 14:16:00,
2013-09-30 08:21:00,31.0,30.0,30.32,WSW,250,0.0,0.0,94,-99.99,,,-99.99,,2013-09-30 14:21:00,
2013-09-30 08:31:00,32.0,31.0,30.32,WSW,250,0.0,0.0,93,-99.99,,,-99.99,,2013-09-30 14:31:00,
2013-09-30 08:41:00,34.0,31.0,30.32,WSW,250,0.0,0.0,93,-99.99,,,-99.99,,2013-09-30 14:41:00,
2013-09-30 08:51:00,34.0,32.0,30.33,WSW,250,0.0,0.0,92,-99.99,,,-99.99,,2013-09-30 14:51:00,
2013-09-30 08:56:00,35.0,32.0,30.33,NNW,340,0.0,0.0,91,-99.99,,,-99.99,,2013-09-30 14:56:00,
2013-09-30 09:01:00,35.0,33.0,30.33,NW,320,0.0,5.0,91,-99.99,,,-99.99,,2013-09-30 15:01:00,
2013-09-30 09:11:00,37.0,33.0,30.33,West,260,0.0,5.0,88,-99.99,,,-99.99,,2013-09-30 15:11:00,
2013-09-30 09:21:00,38.0,33.0,30.33,WNW,290,0.0,3.0,82,-99.99,,,-99.99,,2013-09-30 15:21:00,
2013-09-30 09:31:00,39.0,33.0,30.33,WNW,290,0.0,0.0,79,-99.99,,,-99.99,,2013-09-30 15:31:00,
2013-09-30 09:36:00,40.0,33.0,30.32,SE,140,0.0,0.0,75,-99.99,,,-99.99,,2013-09-30 15:36:00,
2013-09-30 09:46:00,41.0,33.0,30.32,South,180,0.0,3.0,73,-99.99,,,-99.99,,2013-09-30 15:46:00,
2013-09-30 09:56:00,42.0,33.0,30.32,South,180,0.0,0.0,70,-99.99,,,-99.99,,2013-09-30 15:56:00,
2013-09-30 10:01:00,43.0,34.0,30.32,SE,140,0.0,0.0,69,-99.99,,,-99.99,,2013-09-30 16:01:00,
2013-09-30 10:06:00,44.0,34.0,30.32,SE,140,0.0,3.0,67,-99.99,,,-99.99,,2013-09-30 16:06:00,
2013-09-30 10:11:00,44.0,33.0,30.32,SE,140,0.0,0.0,66,-99.99,,,-99.99,,2013-09-30 16:11:00,
2013-09-30 10:21:00,45.0,34.0,30.31,SSE,150,3.0,5.0,66,-99.99,,,-99.99,,2013-09-30 16:21:00,
2013-09-30 10:26:00,45.0,35.0,30.31,SSE,150,3.0,5.0,65,-99.99,,,-99.99,,2013-09-30 16:26:00,
2013-09-30 10:36:00,47.0,35.0,30.31,SE,130,0.0,4.0,63,-99.99,,,-99.99,,2013-09-30 16:36:00,
2013-09-30 10:46:00,48.0,34.0,30.30,SSE,150,3.0,5.0,59,-99.99,,,-99.99,,2013-09-30 16:46:00,
2013-09-30 10:56:00,50.0,35.0,30.30,SSE,160,3.0,7.0,58,-99.99,,,-99.99,,2013-09-30 16:56:00,
2013-09-30 11:06:00,51.0,34.0,30.30,ESE,120,4.0,8.0,53,-99.99,,,-99.99,,2013-09-30 17:06:00,
2013-09-30 11:16:00,52.0,32.0,30.29,ENE,60,0.0,6.0,47,-99.99,,,-99.99,,2013-09-30 17:16:00,
2013-09-30 11:21:00,52.0,32.0,30.29,ESE,110,4.0,5.0,45,-99.99,,,-99.99,,2013-09-30 17:21:00,
2013-09-30 11:26:00,53.0,33.0,30.29,South,180,3.0,5.0,46,-99.99,,,-99.99,,2013-09-30 17:26:00,
2013-09-30 11:31:00,53.0,32.0,30.29,SSE,150,9.0,9.0,44,-99.99,,,-99.99,,2013-09-30 17:31:00,
2013-09-30 11:41:00,55.0,31.0,30.29,South,170,9.0,9.0,41,-99.99,,,-99.99,,2013-09-30 17:41:00,
2013-09-30 11:46:00,55.0,32.0,30.29,SSE,160,4.0,9.0,41,-99.99,,,-99.99,,2013-09-30 17:46:00,
2013-09-30 11:51:00,56.0,32.0,30.28,South,180,8.0,10.0,40,-99.99,,,-99.99,,2013-09-30 17:51:00,
2013-09-30 12:01:00,57.0,33.0,30.28,SSE,160,10.0,12.0,41,-99.99,,,-99.99,,2013-09-30 18:01:00,
2013-09-30 12:11:00,58.0,33.0,30.28,South,170,7.0,12.0,40,-99.99,,,-99.99,,2013-09-30 18:11:00,
2013-09-30 12:16:00,58.0,33.0,30.28,SSE,160,10.0,10.0,39,-99.99,,,-99.99,,2013-09-30 18:16:00,
2013-09-30 12:21:00,58.0,34.0,30.28,South,170,6.0,11.0,40,-99.99,,,-99.99,,2013-09-30 18:21:00,
2013-09-30 12:26:00,58.0,32.0,30.27,SE,140,9.0,12.0,37,-99.99,,,-99.99,,2013-09-30 18:26:00,
2013-09-30 12:31:00,59.0,33.0,30.27,SSE,160,8.0,10.0,38,-99.99,,,-99.99,,2013-09-30 18:31:00,
2013-09-30 12:36:00,59.0,33.0,30.27,SSE,150,8.0,11.0,38,-99.99,,,-99.99,,2013-09-30 18:36:00,
2013-09-30 12:41:00,59.0,34.0,30.27,SSE,160,9.0,9.0,38,-99.99,,,-99.99,,2013-09-30 18:41:00,
2013-09-30 12:46:00,60.0,35.0,30.27,South,180,8.0,12.0,39,-99.99,,,-99.99,,2013-09-30 18:46:00,
2013-09-30 12:56:00,61.0,35.0,30.27,South,170,10.0,11.0,38,-99.99,,,-99.99,,2013-09-30 18:56:00,
2013-09-30 13:01:00,61.0,35.0,30.26,SE,130,5.0,14.0,38,-99.99,,,-99.99,,2013-09-30 19:01:00,
2013-09-30 13:06:00,62.0,36.0,30.26,South,170,11.0,11.0,39,-99.99,,,-99.99,,2013-09-30 19:06:00,
2013-09-30 13:16:00,62.0,35.0,30.26,SW,220,4.0,10.0,37,-99.99,,,-99.99,,2013-09-30 19:16:00,
2013-09-30 13:21:00,63.0,34.0,30.26,WSW,240,8.0,8.0,35,-99.99,,,-99.99,,2013-09-30 19:21:00,
2013-09-30 13:26:00,63.0,35.0,30.26,East,90,10.0,10.0,35,-99.99,,,-99.99,,2013-09-30 19:26:00,
2013-09-30 13:31:00,64.0,37.0,30.26,SW,230,0.0,9.0,38,-99.99,,,-99.99,,2013-09-30 19:31:00,
2013-09-30 13:41:00,64.0,36.0,30.25,West,280,9.0,9.0,36,-99.99,,,-99.99,,2013-09-30 19:41:00,
2013-09-30 13:46:00,64.0,36.0,30.24,NNW,330,12.0,14.0,36,-99.99,,,-99.99,,2013-09-30 19:46:00,
2013-09-30 13:51:00,65.0,36.0,30.24,NNW,340,13.0,17.0,34,-99.99,,,-99.99,,2013-09-30 19:51:00,
2013-09-30 13:56:00,65.0,36.0,30.24,North,10,14.0,14.0,34,-99.99,,,-99.99,,2013-09-30 19:56:00,
2013-09-30 14:06:00,65.0,36.0,30.24,NNW,340,10.0,17.0,34,-99.99,,,-99.99,,2013-09-30 20:06:00,
2013-09-30 14:11:00,66.0,37.0,30.24,North,0,13.0,18.0,35,-99.99,,,-99.99,,2013-09-30 20:11:00,
2013-09-30 14:16:00,66.0,36.0,30.24,North,0,9.0,15.0,33,-99.99,,,-99.99,,2013-09-30 20:16:00,
2013-09-30 14:21:00,66.0,35.0,30.24,WNW,300,14.0,19.0,32,-99.99,,,-99.99,,2013-09-30 20:21:00,
2013-09-30 14:26:00,66.0,35.0,30.24,NNW,330,9.0,18.0,33,-99.99,,,-99.99,,2013-09-30 20:26:00,
2013-09-30 14:31:00,66.0,35.0,30.24,NNE,30,9.0,19.0,32,-99.99,,,-99.99,,2013-09-30 20:31:00,
2013-09-30 14:36:00,66.0,35.0,30.24,WNW,290,14.0,17.0,32,-99.99,,,-99.99,,2013-09-30 20:36:00,
2013-09-30 14:41:00,66.0,35.0,30.25,NNW,340,10.0,19.0,32,-99.99,,,-99.99,,2013-09-30 20:41:00,
2013-09-30 14:46:00,66.0,35.0,30.25,NNE,20,11.0,18.0,32,-99.99,,,-99.99,,2013-09-30 20:46:00,
2013-09-30 14:51:00,66.0,34.0,30.25,North,10,8.0,16.0,31,-99.99,,,-99.99,,2013-09-30 20:51:00,
2013-09-30 14:56:00,66.0,35.0,30.25,NNE,30,4.0,16.0,32,-99.99,,,-99.99,,2013-09-30 20:56:00,
2013-09-30 15:01:00,66.0,36.0,30.25,NNE,20,4.0,17.0,33,-99.99,,,-99.99,,2013-09-30 21:01:00,
2013-09-30 15:06:00,66.0,35.0,30.25,North,0,9.0,13.0,32,-99.99,,,-99.99,,2013-09-30 21:06:00,
2013-09-30 15:16:00,66.0,36.0,30.25,NW,310,5.0,14.0,33,-99.99,,,-99.99,,2013-09-30 21:16:00,
2013-09-30 15:26:00,66.0,36.0,30.25,North,10,8.0,12.0,33,-99.99,,,-99.99,,2013-09-30 21:26:00,
2013-09-30 15:36:00,66.0,36.0,30.26,NNE,30,7.0,16.0,33,-99.99,,,-99.99,,2013-09-30 21:36:00,
2013-09-30 15:41:00,66.0,36.0,30.26,WNW,300,7.0,14.0,34,-99.99,,,-99.99,,2013-09-30 21:41:00,
2013-09-30 15:46:00,66.0,35.0,30.26,NW,320,8.0,14.0,32,-99.99,,,-99.99,,2013-09-30 21:46:00,
2013-09-30 15:56:00,66.0,34.0,30.26,West,280,3.0,16.0,30,-99.99,,,-99.99,,2013-09-30 21:56:00,
2013-09-30 16:01:00,66.0,34.0,30.26,NNW,330,9.0,16.0,30,-99.99,,,-99.99,,2013-09-30 22:01:00,
2013-09-30 16:11:00,67.0,33.0,30.26,WNW,300,4.0,15.0,29,-99.99,,,-99.99,,2013-09-30 22:11:00,
2013-09-30 16:16:00,67.0,33.0,30.26,ENE,70,3.0,12.0,29,-99.99,,,-99.99,,2013-09-30 22:16:00,
2013-09-30 16:21:00,67.0,34.0,30.26,NNE,20,5.0,9.0,30,-99.99,,,-99.99,,2013-09-30 22:21:00,
2013-09-30 16:26:00,67.0,34.0,30.26,NNW,330,10.0,11.0,30,-99.99,,,-99.99,,2013-09-30 22:26:00,
2013-09-30 16:36:00,66.0,34.0,30.26,NNW,330,10.0,13.0,30,-99.99,,,-99.99,,2013-09-30 22:36:00,
2013-09-30 16:41:00,66.0,33.0,30.27,NW,310,8.0,13.0,29,-99.99,,,-99.99,,2013-09-30 22:41:00,
2013-09-30 16:46:00,66.0,33.0,30.27,NW,310,7.0,15.0,29,-99.99,,,-99.99,,2013-09-30 22:46:00,
2013-09-30 16:56:00,66.0,33.0,30.27,NW,320,13.0,17.0,30,-99.99,,,-99.99,,2013-09-30 22:56:00,
2013-09-30 17:01:00,66.0,33.0,30.27,North,350,9.0,19.0,30,-99.99,,,-99.99,,2013-09-30 23:01:00,
2013-09-30 17:11:00,66.0,33.0,30.27,NW,320,7.0,16.0,29,-99.99,,,-99.99,,2013-09-30 23:11:00,
2013-09-30 17:16:00,66.0,34.0,30.27,NNW,340,5.0,16.0,30,-99.99,,,-99.99,,2013-09-30 23:16:00,
2013-09-30 17:26:00,65.0,33.0,30.28,NNE,30,9.0,14.0,31,-99.99,,,-99.99,,2013-09-30 23:26:00,
2013-09-30 17:31:00,64.0,34.0,30.28,NW,320,6.0,13.0,32,-99.99,,,-99.99,,2013-09-30 23:31:00,
2013-09-30 17:41:00,63.0,34.0,30.28,North,350,11.0,13.0,33,-99.99,,,-99.99,,2013-09-30 23:41:00,
2013-09-30 17:46:00,64.0,34.0,30.28,NNW,330,7.0,13.0,34,-99.99,,,-99.99,,2013-09-30 23:46:00,
2013-09-30 17:56:00,63.0,34.0,30.28,NW,310,6.0,9.0,34,-99.99,,,-99.99,,2013-09-30 23:56:00,
2013-09-30 18:01:00,62.0,34.0,30.28,NNW,330,0.0,7.0,35,-99.99,,,-99.99,,2013-10-01 00:01:00,
2013-09-30 18:06:00,61.0,34.0,30.28,North,10,3.0,5.0,36,-99.99,,,-99.99,,2013-10-01 00:06:00,
2013-09-30 18:11:00,60.0,35.0,30.28,NNW,340,0.0,5.0,38,-99.99,,,-99.99,,2013-10-01 00:11:00,
2013-09-30 18:21:00,58.0,34.0,30.28,North,0,0.0,4.0,41,-99.99,,,-99.99,,2013-10-01 00:21:00,
2013-09-30 18:26:00,57.0,35.0,30.28,WNW,290,0.0,3.0,44,-99.99,,,-99.99,,2013-10-01 00:26:00,
2013-09-30 18:31:00,56.0,35.0,30.28,NW,310,3.0,5.0,45,-99.99,,,-99.99,,2013-10-01 00:31:00,
2013-09-30 18:41:00,55.0,34.0,30.28,NW,310,4.0,5.0,44,-99.99,,,-99.99,,2013-10-01 00:41:00,
2013-09-30 18:46:00,55.0,33.0,30.28,WNW,300,0.0,5.0,44,-99.99,,,-99.99,,2013-10-01 00:46:00,
2013-09-30 18:56:00,54.0,33.0,30.28,WNW,300,0.0,4.0,44,-99.99,,,-99.99,,2013-10-01 00:56:00,
2013-09-30 19:01:00,54.0,34.0,30.28,WNW,300,0.0,0.0,48,-99.99,,,-99.99,,2013-10-01 01:01:00,
2013-09-30 19:11:00,53.0,34.0,30.28,WNW,300,0.0,0.0,49,-99.99,,,-99.99,,2013-10-01 01:11:00,
2013-09-30 19:16:00,52.0,34.0,30.28,WNW,300,0.0,0.0,49,-99.99,,,-99.99,,2013-10-01 01:16:00,
2013-09-30 19:26:00,52.0,34.0,30.28,WNW,300,0.0,0.0,50,-99.99,,,-99.99,,2013-10-01 01:26:00,
2013-09-30 19:31:00,51.0,34.0,30.28,WNW,300,0.0,0.0,51,-99.99,,,-99.99,,2013-10-01 01:31:00,
2013-09-30 19:36:00,51.0,34.0,30.29,WNW,300,0.0,0.0,52,-99.99,,,-99.99,,2013-10-01 01:36:00,
2013-09-30 19:41:00,50.0,33.0,30.29,WNW,300,0.0,0.0,52,-99.99,,,-99.99,,2013-10-01 01:41:00,
2013-09-30 19:46:00,50.0,33.0,30.29,North,350,0.0,4.0,53,-99.99,,,-99.99,,2013-10-01 01:46:00,
2013-09-30 19:51:00,49.0,34.0,30.29,North,350,0.0,5.0,55,-99.99,,,-99.99,,2013-10-01 01:51:00,
2013-09-30 19:56:00,49.0,34.0,30.29,North,0,6.0,6.0,56,-99.99,,,-99.99,,2013-10-01 01:56:00,
2013-09-30 20:01:00,49.0,35.0,30.29,North,0,0.0,6.0,59,-99.99,,,-99.99,,2013-10-01 02:01:00,
2013-09-30 20:06:00,48.0,36.0,30.30,North,0,0.0,6.0,62,-99.99,,,-99.99,,2013-10-01 02:06:00,
2013-09-30 20:16:00,47.0,36.0,30.30,NNW,340,0.0,4.0,66,-99.99,,,-99.99,,2013-10-01 02:16:00,
2013-09-30 20:21:00,46.0,36.0,30.30,WNW,290,3.0,4.0,68,-99.99,,,-99.99,,2013-10-01 02:21:00,
2013-09-30 20:31:00,45.0,36.0,30.30,NNW,340,0.0,4.0,71,-99.99,,,-99.99,,2013-10-01 02:31:00,
2013-09-30 20:41:00,44.0,36.0,30.30,NNW,330,0.0,3.0,72,-99.99,,,-99.99,,2013-10-01 02:41:00,
2013-09-30 20:51:00,44.0,36.0,30.30,NNW,340,0.0,6.0,73,-99.99,,,-99.99,,2013-10-01 02:51:00,
2013-09-30 20:56:00,44.0,36.0,30.30,NNW,340,0.0,3.0,74,-99.99,,,-99.99,,2013-10-01 02:56:00,
2013-09-30 21:06:00,43.0,35.0,30.30,NE,40,0.0,6.0,75,-99.99,,,-99.99,,2013-10-01 03:06:00,
2013-09-30 21:16:00,42.0,35.0,30.30,North,10,0.0,6.0,76,-99.99,,,-99.99,,2013-10-01 03:16:00,
2013-09-30 21:21:00,42.0,35.0,30.30,NE,50,5.0,5.0,77,-99.99,,,-99.99,,2013-10-01 03:21:00,
2013-09-30 21:26:00,41.0,35.0,30.29,NE,50,3.0,5.0,79,-99.99,,,-99.99,,2013-10-01 03:26:00,
2013-09-30 21:36:00,40.0,35.0,30.30,ENE,60,0.0,6.0,81,-99.99,,,-99.99,,2013-10-01 03:36:00,
2013-09-30 21:41:00,40.0,34.0,30.29,NW,320,5.0,0.0,79,-99.99,,,-99.99,,2013-10-01 03:41:00,
2013-09-30 21:46:00,41.0,34.0,30.30,NW,320,5.0,5.0,78,-99.99,,,-99.99,,2013-10-01 03:46:00,
2013-09-30 21:51:00,41.0,34.0,30.30,North,0,0.0,8.0,78,-99.99,,,-99.99,,2013-10-01 03:51:00,
2013-09-30 21:56:00,40.0,34.0,30.30,North,0,0.0,5.0,79,-99.99,,,-99.99,,2013-10-01 03:56:00,
2013-09-30 22:01:00,40.0,34.0,30.30,NW,310,6.0,0.0,80,-99.99,,,-99.99,,2013-10-01 04:01:00,
2013-09-30 22:06:00,39.0,34.0,30.30,North,10,5.0,6.0,82,-99.99,,,-99.99,,2013-10-01 04:06:00,
2013-09-30 22:11:00,39.0,34.0,30.30,NE,40,5.0,8.0,82,-99.99,,,-99.99,,2013-10-01 04:11:00,
2013-09-30 22:16:00,39.0,34.0,30.30,North,10,5.0,6.0,82,-99.99,,,-99.99,,2013-10-01 04:16:00,
2013-09-30 22:21:00,39.0,34.0,30.30,WNW,290,3.0,6.0,82,-99.99,,,-99.99,,2013-10-01 04:21:00,
2013-09-30 22:31:00,39.0,34.0,30.30,North,0,5.0,7.0,82,-99.99,,,-99.99,,2013-10-01 04:31:00,
2013-09-30 22:36:00,39.0,34.0,30.30,North,0,8.0,8.0,82,-99.99,,,-99.99,,2013-10-01 04:36:00,
2013-09-30 22:41:00,38.0,34.0,30.31,NNW,330,7.0,8.0,82,-99.99,,,-99.99,,2013-10-01 04:41:00,
2013-09-30 22:46:00,38.0,33.0,30.31,NNW,330,8.0,9.0,83,-99.99,,,-99.99,,2013-10-01 04:46:00,
2013-09-30 22:51:00,38.0,33.0,30.31,North,0,0.0,8.0,82,-99.99,,,-99.99,,2013-10-01 04:51:00,
2013-09-30 23:01:00,38.0,33.0,30.31,North,0,5.0,7.0,83,-99.99,,,-99.99,,2013-10-01 05:01:00,
2013-09-30 23:06:00,38.0,33.0,30.31,North,10,4.0,7.0,83,-99.99,,,-99.99,,2013-10-01 05:06:00,
2013-09-30 23:11:00,37.0,33.0,30.31,North,0,7.0,7.0,85,-99.99,,,-99.99,,2013-10-01 05:11:00,
2013-09-30 23:16:00,37.0,33.0,30.31,NE,40,3.0,7.0,85,-99.99,,,-99.99,,2013-10-01 05:16:00,
2013-09-30 23:21:00,37.0,33.0,30.31,North,10,6.0,6.0,86,-99.99,,,-99.99,,2013-10-01 05:21:00,
2013-09-30 23:26:00,37.0,33.0,30.31,North,350,0.0,6.0,86,-99.99,,,-99.99,,2013-10-01 05:26:00,
2013-09-30 23:36:00,36.0,33.0,30.31,NNE,20,5.0,5.0,87,-99.99,,,-99.99,,2013-10-01 05:36:00,
2013-09-30 23:41:00,36.0,33.0,30.31,NNW,330,7.0,7.0,88,-99.99,,,-99.99,,2013-10-01 05:41:00,
2013-09-30 23:46:00,36.0,33.0,30.31,NNE,30,6.0,8.0,88,-99.99,,,-99.99,,2013-10-01 05:46:00,
2013-09-30 23:56:00,36.0,33.0,30.31,NE,40,5.0,10.0,87,-99.99,,,-99.99,,2013-10-01 05:56:00,